Location: Unspecified
(0.0000°N, 0.0000°E)
Time: 03:33:25
(UTC+00:00)

NTS 1 - Pass Details

Date: 26 May 2026
Orbit: 13477 x 13743 km, 124.9° (Epoch: 9 June)

Event Time Altitude Azimuth Distance (km) Brightness Sun altitude
Rises 18:26:13 0° 79° (E) 18,870 ? -6.8°
Reaches altitude 10° 18:42:03 10° 67° (ENE) 17,765 ? -10.5°
Maximum altitude 19:23:24 25° 22° (NNE) 16,291 ? -20.0°
Drops below altitude 10° 20:03:41 10° 339° (NNW) 17,722 ? -29.3°
Sets 20:18:29 0° 329° (NNW) 18,812 ? -32.6°
